Time,TemperatureF,DewpointF,PressureIn,WindDirection,WindDirectionDegrees,WindSpeedMPH,WindSpeedGustMPH,Humidity,HourlyPrecipIn,Conditions,Clouds,dailyrainin,SolarRadiationWatts/m^2,SoftwareType,DateUTC
2013-04-13 00:02:00,34.7,30.1,29.83,SW,225,5.0,5.0,83,0.00,RA,,0.00,0.0,WeatherDisplay:10.37,2013-04-13 05:02:00,
2013-04-13 00:07:00,34.6,30.0,29.83,SW,233,3.5,3.5,83,0.00,RA,,0.00,0.0,WeatherDisplay:10.37,2013-04-13 05:07:00,
2013-04-13 00:12:00,34.5,29.9,29.83,West,266,3.5,3.5,83,0.00,CLR,,0.00,0.0,WeatherDisplay:10.37,2013-04-13 05:12:00,
2013-04-13 00:17:00,34.5,29.9,29.83,SSW,210,5.8,5.8,83,0.00,CLR,,0.00,0.0,WeatherDisplay:10.37,2013-04-13 05:17:00,
2013-04-13 00:22:00,34.5,29.9,29.83,SSW,209,6.9,6.9,83,0.00,CLR,,0.00,0.0,WeatherDisplay:10.37,2013-04-13 05:22:00,
2013-04-13 00:27:00,34.5,29.9,29.83,South,177,6.9,6.9,83,0.00,CLR,,0.00,0.0,WeatherDisplay:10.37,2013-04-13 05:27:00,
2013-04-13 00:32:00,34.5,29.9,29.83,SW,215,3.5,3.5,83,0.00,CLR,,0.00,0.0,WeatherDisplay:10.37,2013-04-13 05:32:00,
2013-04-13 00:37:00,34.5,29.9,29.83,SW,222,9.2,9.2,83,0.00,CLR,,0.00,0.0,WeatherDisplay:10.37,2013-04-13 05:37:00,
2013-04-13 00:42:00,34.5,30.2,29.83,South,189,4.0,4.0,84,0.00,CLR,,0.00,0.0,WeatherDisplay:10.37,2013-04-13 05:42:00,
2013-04-13 00:47:00,34.5,29.9,29.83,SW,233,4.6,4.6,83,0.00,CLR,,0.00,0.0,WeatherDisplay:10.37,2013-04-13 05:47:00,
2013-04-13 00:52:00,34.5,30.2,29.82,SW,231,5.8,5.8,84,0.00,CLR,,0.00,0.0,WeatherDisplay:10.37,2013-04-13 05:52:00,
2013-04-13 00:57:00,34.5,30.2,29.82,SW,217,3.5,3.5,84,0.00,CLR,,0.00,0.0,WeatherDisplay:10.37,2013-04-13 05:57:00,
2013-04-13 01:02:00,34.5,30.2,29.82,South,187,9.2,9.2,84,0.00,CLR,,0.00,0.0,WeatherDisplay:10.37,2013-04-13 06:02:00,
2013-04-13 01:07:00,34.5,30.2,29.83,SW,232,4.0,4.0,84,0.00,CLR,,0.00,0.0,WeatherDisplay:10.37,2013-04-13 06:07:00,
2013-04-13 01:12:00,34.5,30.2,29.83,SW,216,10.4,10.4,84,0.00,CLR,,0.00,0.0,WeatherDisplay:10.37,2013-04-13 06:12:00,
2013-04-13 01:17:00,34.5,30.2,29.83,SW,214,3.5,3.5,84,0.00,CLR,,0.00,0.0,WeatherDisplay:10.37,2013-04-13 06:17:00,
2013-04-13 01:22:00,34.4,30.1,29.83,SSW,213,3.5,3.5,84,0.00,CLR,,0.00,0.0,WeatherDisplay:10.37,2013-04-13 06:22:00,
2013-04-13 01:27:00,34.4,30.1,29.83,SW,214,4.6,4.6,84,0.00,CLR,,0.00,0.0,WeatherDisplay:10.37,2013-04-13 06:27:00,
2013-04-13 01:32:00,34.3,30.0,29.83,SW,223,3.5,3.5,84,0.00,CLR,,0.00,0.0,WeatherDisplay:10.37,2013-04-13 06:32:00,
2013-04-13 01:38:00,34.3,30.0,29.83,SW,214,3.5,3.5,84,0.00,CLR,,0.00,0.0,WeatherDisplay:10.37,2013-04-13 06:38:00,
2013-04-13 01:44:00,34.2,30.2,29.83,SW,216,2.3,2.3,85,0.00,CLR,,0.00,0.0,WeatherDisplay:10.37,2013-04-13 06:44:00,
2013-04-13 01:49:00,34.2,30.2,29.83,South,169,3.5,3.5,85,0.00,CLR,,0.00,0.0,WeatherDisplay:10.37,2013-04-13 06:49:00,
2013-04-13 01:54:00,34.2,30.2,29.83,West,264,5.8,5.8,85,0.00,CLR,,0.00,0.0,WeatherDisplay:10.37,2013-04-13 06:54:00,
2013-04-13 01:59:00,34.2,30.2,29.82,South,172,5.0,5.0,85,0.00,CLR,,0.00,0.0,WeatherDisplay:10.37,2013-04-13 06:59:00,
2013-04-13 02:04:00,34.2,30.2,29.82,SSW,197,4.6,4.6,85,0.00,CLR,,0.00,0.0,WeatherDisplay:10.37,2013-04-13 07:04:00,
2013-04-13 02:09:00,34.1,30.1,29.82,SW,221,11.5,11.5,85,0.00,CLR,,0.00,0.0,WeatherDisplay:10.37,2013-04-13 07:09:00,
2013-04-13 02:14:00,34.1,30.1,29.82,SSW,196,3.5,3.5,85,0.00,CLR,,0.00,0.0,WeatherDisplay:10.37,2013-04-13 07:14:00,
2013-04-13 02:19:00,34.0,30.0,29.82,SSW,213,5.8,5.8,85,0.00,CLR,,0.00,0.0,WeatherDisplay:10.37,2013-04-13 07:19:00,
2013-04-13 02:24:00,34.0,30.0,29.82,SW,219,6.9,6.9,85,0.00,CLR,,0.00,0.0,WeatherDisplay:10.37,2013-04-13 07:24:00,
2013-04-13 02:29:00,34.0,30.0,29.82,SSW,199,11.0,11.0,85,0.00,CLR,,0.00,0.0,WeatherDisplay:10.37,2013-04-13 07:29:00,
2013-04-13 02:34:00,34.0,30.0,29.82,SSW,203,6.9,6.9,85,0.00,CLR,,0.00,0.0,WeatherDisplay:10.37,2013-04-13 07:34:00,
2013-04-13 02:39:00,34.0,30.0,29.82,SW,217,11.5,11.5,85,0.00,CLR,,0.00,0.0,WeatherDisplay:10.37,2013-04-13 07:39:00,
2013-04-13 02:45:00,34.0,30.0,29.82,SSW,213,3.0,10.0,85,0.00,CLR,,0.00,0.0,WeatherDisplay:10.37,2013-04-13 07:45:00,
2013-04-13 02:50:00,33.9,29.9,29.82,SSW,193,3.0,10.0,85,0.00,CLR,,0.00,0.0,WeatherDisplay:10.37,2013-04-13 07:50:00,
2013-04-13 02:55:00,33.9,29.9,29.82,South,182,5.0,12.0,85,0.00,CLR,,0.00,0.0,WeatherDisplay:10.37,2013-04-13 07:55:00,
2013-04-13 03:00:00,33.9,29.9,29.82,SSW,207,2.0,7.0,85,0.00,CLR,,0.00,0.0,WeatherDisplay:10.37,2013-04-13 08:00:00,
2013-04-13 03:05:00,33.9,29.9,29.82,SSW,209,3.0,12.0,85,0.00,CLR,,0.00,0.0,WeatherDisplay:10.37,2013-04-13 08:05:00,
2013-04-13 03:10:00,33.9,29.9,29.82,SSW,206,5.0,12.0,85,0.00,CLR,,0.00,0.0,WeatherDisplay:10.37,2013-04-13 08:10:00,
2013-04-13 03:15:00,33.9,29.9,29.82,South,173,10.4,10.4,85,0.00,CLR,,0.00,0.0,WeatherDisplay:10.37,2013-04-13 08:15:00,
2013-04-13 03:20:00,33.8,29.8,29.82,SSW,208,3.5,3.5,85,0.00,CLR,,0.00,0.0,WeatherDisplay:10.37,2013-04-13 08:20:00,
2013-04-13 03:25:00,33.8,29.8,29.82,South,183,5.8,5.8,85,0.00,CLR,,0.00,0.0,WeatherDisplay:10.37,2013-04-13 08:25:00,
2013-04-13 03:30:00,33.8,29.8,29.82,SSE,147,11.5,11.5,85,0.00,CLR,,0.00,0.0,WeatherDisplay:10.37,2013-04-13 08:30:00,
2013-04-13 03:35:00,33.8,30.1,29.82,SSW,194,6.0,6.0,86,0.00,CLR,,0.00,0.0,WeatherDisplay:10.37,2013-04-13 08:35:00,
2013-04-13 03:40:00,33.7,30.0,29.82,SW,217,5.8,5.8,86,0.00,CLR,,0.00,0.0,WeatherDisplay:10.37,2013-04-13 08:40:00,
2013-04-13 03:47:00,33.7,30.0,29.82,South,169,4.6,4.6,86,0.00,CLR,,0.00,0.0,WeatherDisplay:10.37,2013-04-13 08:47:00,
2013-04-13 03:52:00,33.7,30.0,29.82,SSE,166,11.5,11.5,86,0.00,CLR,,0.00,0.0,WeatherDisplay:10.37,2013-04-13 08:52:00,
2013-04-13 03:57:00,33.7,30.0,29.82,SW,216,6.9,6.9,86,0.00,CLR,,0.00,0.0,WeatherDisplay:10.37,2013-04-13 08:57:00,
2013-04-13 04:03:00,33.7,30.0,29.81,SW,223,8.1,8.1,86,0.00,CLR,,0.00,0.0,WeatherDisplay:10.37,2013-04-13 09:03:00,
2013-04-13 04:08:00,33.7,30.0,29.81,SW,220,7.0,7.0,86,0.00,CLR,,0.00,0.0,WeatherDisplay:10.37,2013-04-13 09:08:00,
2013-04-13 04:13:00,33.7,30.0,29.81,SSW,208,5.8,5.8,86,0.00,CLR,,0.00,0.0,WeatherDisplay:10.37,2013-04-13 09:13:00,
2013-04-13 04:18:00,33.6,29.9,29.81,SW,233,4.6,4.6,86,0.00,CLR,,0.00,0.0,WeatherDisplay:10.37,2013-04-13 09:18:00,
2013-04-13 04:23:00,33.6,29.9,29.82,SSW,194,4.6,4.6,86,0.00,CLR,,0.00,0.0,WeatherDisplay:10.37,2013-04-13 09:23:00,
2013-04-13 04:28:00,33.6,29.9,29.81,SW,224,6.9,6.9,86,0.00,CLR,,0.00,0.0,WeatherDisplay:10.37,2013-04-13 09:28:00,
2013-04-13 04:33:00,33.6,29.9,29.82,SW,220,5.8,5.8,86,0.00,CLR,,0.00,0.0,WeatherDisplay:10.37,2013-04-13 09:33:00,
2013-04-13 04:38:00,33.6,29.9,29.81,WSW,239,3.5,3.5,86,0.00,CLR,,0.00,0.0,WeatherDisplay:10.37,2013-04-13 09:38:00,
2013-04-13 04:43:00,33.6,29.9,29.81,SSW,199,3.5,3.5,86,0.00,CLR,,0.00,0.0,WeatherDisplay:10.37,2013-04-13 09:43:00,
2013-04-13 04:49:00,33.5,29.8,29.82,SW,223,8.1,8.1,86,0.00,CLR,,0.00,0.0,WeatherDisplay:10.37,2013-04-13 09:49:00,
2013-04-13 04:54:00,33.5,30.0,29.82,SSW,192,11.5,11.5,87,0.00,CLR,,0.00,0.0,WeatherDisplay:10.37,2013-04-13 09:54:00,
2013-04-13 04:59:00,33.5,30.0,29.82,SW,229,6.0,6.0,87,0.00,CLR,,0.00,0.0,WeatherDisplay:10.37,2013-04-13 09:59:00,
2013-04-13 05:04:00,33.5,30.0,29.82,SSW,210,9.0,9.0,87,0.00,CLR,,0.00,0.0,WeatherDisplay:10.37,2013-04-13 10:04:00,
2013-04-13 05:09:00,33.5,30.0,29.82,SSW,213,3.5,3.5,87,0.00,CLR,,0.00,0.0,WeatherDisplay:10.37,2013-04-13 10:09:00,
2013-04-13 05:14:00,33.5,30.0,29.82,SW,214,5.8,5.8,87,0.00,CLR,,0.00,0.0,WeatherDisplay:10.37,2013-04-13 10:14:00,
2013-04-13 05:19:00,33.4,29.9,29.82,SE,141,10.0,10.0,87,0.00,CLR,,0.00,0.0,WeatherDisplay:10.37,2013-04-13 10:19:00,
2013-04-13 05:24:00,33.4,29.9,29.82,South,189,3.5,3.5,87,0.00,CLR,,0.00,0.0,WeatherDisplay:10.37,2013-04-13 10:24:00,
2013-04-13 05:29:00,33.4,29.9,29.82,SW,216,11.5,11.5,87,0.00,CLR,,0.00,0.0,WeatherDisplay:10.37,2013-04-13 10:29:00,
2013-04-13 05:34:00,33.4,29.9,29.82,West,260,8.1,8.1,87,0.00,CLR,,0.00,0.0,WeatherDisplay:10.37,2013-04-13 10:34:00,
2013-04-13 05:39:00,33.4,29.9,29.82,NE,48,4.6,4.6,87,0.00,CLR,,0.00,0.0,WeatherDisplay:10.37,2013-04-13 10:39:00,
2013-04-13 05:44:00,33.4,29.9,29.82,South,189,6.9,6.9,87,0.00,CLR,,0.00,0.0,WeatherDisplay:10.37,2013-04-13 10:44:00,
2013-04-13 05:49:00,33.3,29.6,29.82,South,190,4.6,4.6,86,0.00,CLR,,0.00,0.0,WeatherDisplay:10.37,2013-04-13 10:49:00,
2013-04-13 05:54:00,33.3,29.8,29.82,WNW,292,12.7,12.7,87,0.00,CLR,,0.00,0.0,WeatherDisplay:10.37,2013-04-13 10:54:00,
2013-04-13 05:59:00,33.3,29.6,29.82,South,177,12.0,12.0,86,0.00,CLR,,0.00,0.0,WeatherDisplay:10.37,2013-04-13 10:59:00,
2013-04-13 06:04:00,33.2,29.5,29.82,SW,219,6.9,6.9,86,0.01,RA,,0.01,0.0,WeatherDisplay:10.37,2013-04-13 11:04:00,
2013-04-13 06:10:00,33.2,29.8,29.82,SSW,211,3.0,13.0,87,0.00,RA,,0.01,0.0,WeatherDisplay:10.37,2013-04-13 11:10:00,
2013-04-13 06:15:00,33.2,29.8,29.82,SSW,198,9.2,9.2,87,0.01,OVC,,0.01,0.0,WeatherDisplay:10.37,2013-04-13 11:15:00,
2013-04-13 06:20:00,33.2,29.8,29.82,SSW,206,10.4,10.4,87,0.01,OVC,,0.01,0.0,WeatherDisplay:10.37,2013-04-13 11:20:00,
2013-04-13 06:26:00,33.1,29.7,29.82,South,182,8.1,8.1,87,0.01,OVC,,0.01,0.0,WeatherDisplay:10.37,2013-04-13 11:26:00,
2013-04-13 06:31:00,33.1,29.7,29.82,SSW,195,8.1,8.1,87,0.01,BKN,,0.01,5.0,WeatherDisplay:10.37,2013-04-13 11:31:00,
2013-04-13 06:36:00,33.0,29.6,29.82,South,173,5.8,5.8,87,0.01,BKN,,0.01,7.0,WeatherDisplay:10.37,2013-04-13 11:36:00,
2013-04-13 06:41:00,33.0,29.6,29.82,SSW,195,11.5,11.5,87,0.01,BKN,,0.01,9.0,WeatherDisplay:10.37,2013-04-13 11:41:00,
2013-04-13 06:46:00,33.0,29.6,29.82,South,179,5.0,5.0,87,0.01,BKN,,0.01,7.0,WeatherDisplay:10.37,2013-04-13 11:46:00,
2013-04-13 06:51:00,33.0,29.6,29.83,SW,235,4.6,4.6,87,0.01,BKN,,0.01,12.0,WeatherDisplay:10.37,2013-04-13 11:51:00,
2013-04-13 06:56:00,33.0,29.6,29.83,SW,218,10.4,10.4,87,0.01,BKN,,0.01,12.0,WeatherDisplay:10.37,2013-04-13 11:56:00,
2013-04-13 07:01:00,33.0,29.6,29.83,SSW,213,4.6,4.6,87,0.01,BKN,,0.01,12.0,WeatherDisplay:10.37,2013-04-13 12:01:00,
2013-04-13 07:07:00,33.0,29.6,29.83,SW,231,5.8,5.8,87,0.00,BKN,,0.01,21.0,WeatherDisplay:10.37,2013-04-13 12:07:00,
2013-04-13 07:13:00,33.0,29.6,29.83,South,187,11.5,11.5,87,0.00,BKN,,0.01,28.0,WeatherDisplay:10.37,2013-04-13 12:13:00,
2013-04-13 07:18:00,33.1,29.7,29.83,SW,231,9.2,9.2,87,0.00,BKN,,0.01,39.0,WeatherDisplay:10.37,2013-04-13 12:18:00,
2013-04-13 07:23:00,33.2,29.8,29.84,SSW,192,4.6,4.6,87,0.00,BKN,,0.01,40.0,WeatherDisplay:10.37,2013-04-13 12:23:00,
2013-04-13 07:28:00,33.2,29.8,29.84,SSW,192,6.9,6.9,87,0.00,BKN,,0.01,26.0,WeatherDisplay:10.37,2013-04-13 12:28:00,
2013-04-13 07:33:00,33.3,29.6,29.84,SW,225,10.4,10.4,86,0.00,BKN,,0.01,32.0,WeatherDisplay:10.37,2013-04-13 12:33:00,
2013-04-13 07:38:00,33.3,29.6,29.84,SW,216,11.5,11.5,86,0.00,BKN,,0.01,30.0,WeatherDisplay:10.37,2013-04-13 12:38:00,
2013-04-13 07:43:00,33.3,29.8,29.84,South,182,7.0,7.0,87,0.00,BKN,,0.01,14.0,WeatherDisplay:10.37,2013-04-13 12:43:00,
2013-04-13 07:48:00,33.3,29.6,29.84,SSW,213,3.5,3.5,86,0.00,BKN,,0.01,32.0,WeatherDisplay:10.37,2013-04-13 12:48:00,
2013-04-13 07:53:00,33.4,29.9,29.85,South,170,4.6,4.6,87,0.00,BKN,,0.01,30.0,WeatherDisplay:10.37,2013-04-13 12:53:00,
2013-04-13 07:58:00,33.3,29.8,29.85,SSW,200,6.0,6.0,87,0.00,BKN,,0.01,23.0,WeatherDisplay:10.37,2013-04-13 12:58:00,
2013-04-13 08:03:00,33.3,29.8,29.85,SSW,210,11.5,11.5,87,0.00,BKN,,0.01,25.0,WeatherDisplay:10.37,2013-04-13 13:03:00,
2013-04-13 08:09:00,33.3,29.8,29.85,SW,214,5.0,5.3,87,0.00,BKN,,0.01,46.0,WeatherDisplay:10.37,2013-04-13 13:09:00,
2013-04-13 08:14:00,33.5,30.0,29.85,SSW,209,4.6,4.6,87,0.00,BKN,,0.01,77.0,WeatherDisplay:10.37,2013-04-13 13:14:00,
2013-04-13 08:19:00,33.7,30.0,29.85,SW,235,10.4,10.4,86,0.00,BKN,,0.01,90.0,WeatherDisplay:10.37,2013-04-13 13:19:00,
2013-04-13 08:25:00,34.0,30.3,29.86,SW,222,9.2,9.2,86,0.00,BKN,,0.01,120.0,WeatherDisplay:10.37,2013-04-13 13:25:00,
2013-04-13 08:30:00,34.2,30.2,29.86,SW,227,13.0,13.0,85,0.00,BKN,,0.01,109.0,WeatherDisplay:10.37,2013-04-13 13:30:00,
2013-04-13 08:35:00,34.5,30.5,29.86,SW,221,4.6,4.6,85,0.00,BKN,,0.01,104.0,WeatherDisplay:10.37,2013-04-13 13:35:00,
2013-04-13 08:40:00,34.5,30.5,29.86,SSW,196,6.0,6.0,85,0.00,BKN,,0.01,91.0,WeatherDisplay:10.37,2013-04-13 13:40:00,
2013-04-13 08:45:00,34.5,30.2,29.86,WNW,287,6.9,6.9,84,0.00,BKN,,0.01,123.0,WeatherDisplay:10.37,2013-04-13 13:45:00,
2013-04-13 08:51:00,34.5,29.9,29.86,SW,225,3.5,3.5,83,0.00,BKN,,0.01,91.0,WeatherDisplay:10.37,2013-04-13 13:51:00,
2013-04-13 08:56:00,34.7,29.8,29.86,SW,222,3.5,3.5,82,0.00,BKN,,0.01,91.0,WeatherDisplay:10.37,2013-04-13 13:56:00,
2013-04-13 09:02:00,34.7,29.8,29.86,SW,227,6.9,6.9,82,0.00,BKN,,0.01,127.0,WeatherDisplay:10.37,2013-04-13 14:02:00,
2013-04-13 09:08:00,34.7,29.2,29.86,SW,220,9.2,9.2,80,0.00,BKN,,0.01,141.0,WeatherDisplay:10.37,2013-04-13 14:08:00,
2013-04-13 09:13:00,34.9,29.4,29.86,SW,215,3.5,3.5,80,0.00,BKN,,0.01,313.0,WeatherDisplay:10.37,2013-04-13 14:13:00,
2013-04-13 09:18:00,35.7,30.1,29.86,SSW,206,3.5,3.5,80,0.00,SCT,,0.01,146.0,WeatherDisplay:10.37,2013-04-13 14:18:00,
2013-04-13 09:23:00,35.3,29.4,29.87,West,270,2.3,2.3,79,0.00,BKN,,0.01,33.0,WeatherDisplay:10.37,2013-04-13 14:23:00,
2013-04-13 09:28:00,34.6,29.1,29.87,West,268,3.5,3.5,80,0.00,BKN,,0.01,47.0,WeatherDisplay:10.37,2013-04-13 14:28:00,
2013-04-13 09:33:00,34.2,29.0,29.87,SW,232,1.1,0.0,81,0.00,BKN,,0.01,130.0,WeatherDisplay:10.37,2013-04-13 14:33:00,
2013-04-13 09:38:00,34.0,29.4,29.87,NW,318,1.1,1.1,83,0.00,BKN,,0.01,202.0,WeatherDisplay:10.37,2013-04-13 14:38:00,
2013-04-13 09:43:00,34.1,29.5,29.87,NW,323,3.5,3.5,83,0.00,BKN,,0.01,171.0,WeatherDisplay:10.37,2013-04-13 14:43:00,
2013-04-13 09:49:00,34.2,29.6,29.88,WSW,244,2.3,0.0,83,0.00,BKN,,0.01,151.0,WeatherDisplay:10.37,2013-04-13 14:49:00,
2013-04-13 09:54:00,34.5,30.2,29.88,WSW,239,1.1,1.1,84,0.00,BKN,,0.01,294.0,WeatherDisplay:10.37,2013-04-13 14:54:00,
2013-04-13 10:00:00,35.1,30.8,29.88,SW,229,0.0,5.0,84,0.00,BKN,,0.01,40.0,WeatherDisplay:10.37,2013-04-13 15:00:00,
2013-04-13 10:05:00,34.9,30.3,29.88,SW,226,1.0,8.0,83,0.00,BKN,,0.01,90.0,WeatherDisplay:10.37,2013-04-13 15:05:00,
2013-04-13 10:10:00,34.7,30.1,29.88,SW,219,0.0,0.1,83,0.00,BKN,,0.01,132.0,WeatherDisplay:10.37,2013-04-13 15:10:00,
2013-04-13 10:15:00,34.8,30.5,29.88,SW,222,1.0,5.0,84,0.00,BKN,,0.01,97.0,WeatherDisplay:10.37,2013-04-13 15:15:00,
2013-04-13 10:20:00,35.3,30.9,29.88,SSW,211,6.0,6.0,84,0.00,BKN,,0.01,728.0,WeatherDisplay:10.37,2013-04-13 15:20:00,
2013-04-13 10:25:00,36.5,32.1,29.88,SW,226,0.0,7.0,84,0.00,FEW,,0.01,731.0,WeatherDisplay:10.37,2013-04-13 15:25:00,
2013-04-13 10:30:00,37.4,32.1,29.88,SW,227,2.0,5.0,81,0.00,CLR,,0.01,258.0,WeatherDisplay:10.37,2013-04-13 15:30:00,
2013-04-13 10:35:00,37.1,31.2,29.88,SW,221,2.0,5.0,79,0.00,SCT,,0.01,200.0,WeatherDisplay:10.37,2013-04-13 15:35:00,
2013-04-13 10:40:00,36.8,30.3,29.88,SW,218,2.0,7.0,77,0.00,BKN,,0.01,207.0,WeatherDisplay:10.37,2013-04-13 15:40:00,
2013-04-13 10:45:00,36.7,30.2,29.89,SSW,196,4.6,4.6,77,0.00,BKN,,0.01,185.0,WeatherDisplay:10.37,2013-04-13 15:45:00,
2013-04-13 10:50:00,36.6,30.1,29.89,SSE,155,1.1,1.1,77,0.00,BKN,,0.01,149.0,WeatherDisplay:10.37,2013-04-13 15:50:00,
2013-04-13 10:55:00,36.6,30.4,29.89,WNW,295,2.3,2.3,78,0.00,BKN,,0.01,139.0,WeatherDisplay:10.37,2013-04-13 15:55:00,
2013-04-13 11:00:00,36.3,29.8,29.89,WSW,242,3.5,3.5,77,0.00,BKN,,0.01,86.0,WeatherDisplay:10.37,2013-04-13 16:00:00,
2013-04-13 11:05:00,35.9,29.4,29.90,West,279,2.3,2.3,77,0.00,BKN,,0.01,135.0,WeatherDisplay:10.37,2013-04-13 16:05:00,
2013-04-13 11:10:00,35.9,29.4,29.90,South,191,2.0,2.0,77,0.00,BKN,,0.01,130.0,WeatherDisplay:10.37,2013-04-13 16:10:00,
2013-04-13 11:15:00,36.3,30.4,29.90,SW,219,2.3,2.3,79,0.00,BKN,,0.01,250.0,WeatherDisplay:10.37,2013-04-13 16:15:00,
2013-04-13 11:20:00,36.4,29.9,29.90,WSW,244,5.8,0.0,77,0.00,BKN,,0.01,267.0,WeatherDisplay:10.37,2013-04-13 16:20:00,
2013-04-13 11:25:00,36.6,29.7,29.90,WSW,250,3.5,3.5,76,0.00,BKN,,0.01,167.0,WeatherDisplay:10.37,2013-04-13 16:25:00,
2013-04-13 11:30:00,36.4,28.9,29.90,SW,233,1.1,1.1,74,0.00,BKN,,0.01,130.0,WeatherDisplay:10.37,2013-04-13 16:30:00,
2013-04-13 11:36:00,36.5,29.7,29.90,WSW,246,2.3,2.3,76,0.00,BKN,,0.01,199.0,WeatherDisplay:10.37,2013-04-13 16:36:00,
2013-04-13 11:41:00,36.9,29.7,29.90,SW,221,5.8,5.8,75,0.00,BKN,,0.01,371.0,WeatherDisplay:10.37,2013-04-13 16:41:00,
2013-04-13 11:47:00,37.4,29.5,29.90,SW,229,9.2,9.2,73,0.00,BKN,,0.01,322.0,WeatherDisplay:10.37,2013-04-13 16:47:00,
2013-04-13 11:52:00,37.9,30.4,29.90,SW,228,6.9,6.9,74,0.00,BKN,,0.01,381.0,WeatherDisplay:10.37,2013-04-13 16:52:00,
2013-04-13 11:57:00,38.1,29.9,29.90,SSW,208,5.8,5.8,72,0.00,BKN,,0.01,308.0,WeatherDisplay:10.37,2013-04-13 16:57:00,
2013-04-13 12:02:00,37.8,28.9,29.90,SW,217,13.8,13.8,70,0.00,BKN,,0.01,172.0,WeatherDisplay:10.37,2013-04-13 17:02:00,
2013-04-13 12:07:00,37.4,29.2,29.90,SSE,158,5.0,5.0,72,0.00,BKN,,0.01,171.0,WeatherDisplay:10.37,2013-04-13 17:07:00,
2013-04-13 12:12:00,37.3,28.8,29.90,SW,232,2.3,2.3,71,0.00,BKN,,0.01,244.0,WeatherDisplay:10.37,2013-04-13 17:12:00,
2013-04-13 12:18:00,37.6,28.3,29.90,SSE,163,12.7,12.7,69,0.00,BKN,,0.01,346.0,WeatherDisplay:10.37,2013-04-13 17:18:00,
2013-04-13 12:23:00,37.8,28.2,29.90,SW,226,6.9,6.9,68,0.00,BKN,,0.01,229.0,WeatherDisplay:10.37,2013-04-13 17:23:00,
2013-04-13 12:28:00,38.0,28.7,29.91,SW,231,4.0,4.0,69,0.00,BKN,,0.01,304.0,WeatherDisplay:10.37,2013-04-13 17:28:00,
2013-04-13 12:34:00,38.2,29.3,29.90,SW,236,5.8,5.8,70,0.00,BKN,,0.01,237.0,WeatherDisplay:10.37,2013-04-13 17:34:00,
2013-04-13 12:39:00,37.8,27.8,29.90,SW,214,11.5,11.5,67,0.00,BKN,,0.01,132.0,WeatherDisplay:10.37,2013-04-13 17:39:00,
2013-04-13 12:44:00,37.5,27.9,29.91,SW,216,6.9,6.9,68,0.00,BKN,,0.01,155.0,WeatherDisplay:10.37,2013-04-13 17:44:00,
2013-04-13 12:49:00,37.5,27.9,29.91,SW,229,6.9,6.9,68,0.00,BKN,,0.01,204.0,WeatherDisplay:10.37,2013-04-13 17:49:00,
2013-04-13 12:54:00,37.8,28.9,29.91,SW,221,11.0,11.0,70,0.00,BKN,,0.01,309.0,WeatherDisplay:10.37,2013-04-13 17:54:00,
2013-04-13 13:00:00,38.2,29.3,29.91,SW,225,6.9,6.9,70,0.00,BKN,,0.01,318.0,WeatherDisplay:10.37,2013-04-13 18:00:00,
2013-04-13 13:05:00,38.1,27.8,29.91,SSW,208,6.0,12.0,66,0.00,BKN,,0.01,355.0,WeatherDisplay:10.37,2013-04-13 18:05:00,
2013-04-13 13:10:00,38.5,29.2,29.91,SSW,207,1.0,7.0,69,0.00,BKN,,0.01,276.0,WeatherDisplay:10.37,2013-04-13 18:10:00,
2013-04-13 13:15:00,38.9,29.2,29.91,SSW,213,1.0,8.0,68,0.00,BKN,,0.01,121.0,WeatherDisplay:10.37,2013-04-13 18:15:00,
2013-04-13 13:20:00,38.3,28.3,29.91,SW,220,6.9,6.9,67,0.00,BKN,,0.01,111.0,WeatherDisplay:10.37,2013-04-13 18:20:00,
2013-04-13 13:25:00,37.8,28.2,29.92,SW,235,6.9,6.9,68,0.00,BKN,,0.01,213.0,WeatherDisplay:10.37,2013-04-13 18:25:00,
2013-04-13 13:27:00,37.8,28.2,29.92,WSW,252,10.4,10.4,68,0.00,BKN,,0.01,329.0,WeatherDisplay:10.37,2013-04-13 18:27:00,
2013-04-13 13:28:00,37.8,28.5,29.92,SW,222,5.8,5.8,69,0.00,BKN,,0.01,362.0,WeatherDisplay:10.37,2013-04-13 18:28:00,
2013-04-13 13:33:00,38.2,28.6,29.92,SW,233,4.6,4.6,68,0.00,BKN,,0.01,334.0,WeatherDisplay:10.37,2013-04-13 18:33:00,
2013-04-13 13:38:00,38.7,29.4,29.92,SSW,204,2.3,2.3,69,0.00,BKN,,0.01,330.0,WeatherDisplay:10.37,2013-04-13 18:38:00,
2013-04-13 13:43:00,39.0,28.6,29.92,SSW,202,10.4,10.4,66,0.00,BKN,,0.01,211.0,WeatherDisplay:10.37,2013-04-13 18:43:00,
2013-04-13 13:48:00,38.8,28.4,29.91,SW,221,11.5,11.5,66,0.00,BKN,,0.01,120.0,WeatherDisplay:10.37,2013-04-13 18:48:00,
2013-04-13 13:53:00,38.3,27.9,29.92,SW,223,10.4,10.4,66,0.00,BKN,,0.01,86.0,WeatherDisplay:10.37,2013-04-13 18:53:00,
2013-04-13 13:58:00,37.9,27.9,29.92,SW,221,8.1,8.1,67,0.00,BKN,,0.01,81.0,WeatherDisplay:10.37,2013-04-13 18:58:00,
2013-04-13 14:03:00,37.8,28.2,29.92,SW,218,1.1,1.1,68,0.00,BKN,,0.01,105.0,WeatherDisplay:10.37,2013-04-13 19:03:00,
2013-04-13 14:08:00,37.8,28.5,29.92,SW,216,4.6,4.6,69,0.00,BKN,,0.01,97.0,WeatherDisplay:10.37,2013-04-13 19:08:00,
2013-04-13 14:13:00,37.8,28.5,29.92,SW,214,2.3,2.3,69,0.00,BKN,,0.01,76.0,WeatherDisplay:10.37,2013-04-13 19:13:00,
2013-04-13 14:18:00,37.8,28.9,29.92,SW,231,3.5,3.5,70,0.00,BKN,,0.01,60.0,WeatherDisplay:10.37,2013-04-13 19:18:00,
2013-04-13 14:23:00,37.6,29.0,29.92,WSW,252,2.3,0.0,71,0.00,BKN,,0.01,60.0,WeatherDisplay:10.37,2013-04-13 19:23:00,
2013-04-13 14:28:00,37.4,28.5,29.93,WSW,240,3.5,3.5,70,0.00,BKN,,0.01,51.0,WeatherDisplay:10.37,2013-04-13 19:28:00,
2013-04-13 14:33:00,37.4,28.5,29.93,SW,220,6.9,6.9,70,0.00,BKN,,0.01,51.0,WeatherDisplay:10.37,2013-04-13 19:33:00,
2013-04-13 14:38:00,37.3,28.8,29.93,SW,236,3.5,3.5,71,0.00,BKN,,0.01,49.0,WeatherDisplay:10.37,2013-04-13 19:38:00,
2013-04-13 14:43:00,37.2,28.7,29.93,SSW,209,5.8,5.8,71,0.00,BKN,,0.01,51.0,WeatherDisplay:10.37,2013-04-13 19:43:00,
2013-04-13 14:48:00,37.0,28.1,29.93,South,184,9.2,9.2,70,0.00,BKN,,0.01,51.0,WeatherDisplay:10.37,2013-04-13 19:48:00,
2013-04-13 14:53:00,36.9,28.0,29.94,WSW,241,9.2,9.2,70,0.00,BKN,,0.01,72.0,WeatherDisplay:10.37,2013-04-13 19:53:00,
2013-04-13 14:58:00,36.8,28.3,29.93,WSW,237,5.8,5.8,71,0.00,BKN,,0.01,109.0,WeatherDisplay:10.37,2013-04-13 19:58:00,
2013-04-13 15:03:00,36.9,28.4,29.93,SW,223,6.9,6.9,71,0.00,BKN,,0.01,86.0,WeatherDisplay:10.37,2013-04-13 20:03:00,
2013-04-13 15:08:00,36.9,28.4,29.93,SSW,200,10.4,10.4,71,0.00,BKN,,0.01,77.0,WeatherDisplay:10.37,2013-04-13 20:08:00,
2013-04-13 15:13:00,37.0,28.8,29.93,SSW,210,5.8,5.8,72,0.00,BKN,,0.01,81.0,WeatherDisplay:10.37,2013-04-13 20:13:00,
2013-04-13 15:18:00,37.0,28.8,29.94,SW,223,10.4,10.4,72,0.00,BKN,,0.01,70.0,WeatherDisplay:10.37,2013-04-13 20:18:00,
2013-04-13 15:23:00,37.1,29.2,29.94,SW,214,3.5,3.5,73,0.00,BKN,,0.01,84.0,WeatherDisplay:10.37,2013-04-13 20:23:00,
2013-04-13 15:28:00,37.1,28.6,29.93,SSW,192,11.5,11.5,71,0.00,BKN,,0.01,169.0,WeatherDisplay:10.37,2013-04-13 20:28:00,
2013-04-13 15:33:00,37.4,28.9,29.93,SW,227,6.9,6.9,71,0.00,BKN,,0.01,178.0,WeatherDisplay:10.37,2013-04-13 20:33:00,
2013-04-13 15:38:00,37.7,29.1,29.93,WSW,255,10.4,10.4,71,0.00,BKN,,0.01,141.0,WeatherDisplay:10.37,2013-04-13 20:38:00,
2013-04-13 15:43:00,38.0,29.1,29.93,SW,219,8.0,8.0,70,0.00,BKN,,0.01,338.0,WeatherDisplay:10.37,2013-04-13 20:43:00,
2013-04-13 15:48:00,38.4,29.5,29.92,SSW,198,9.2,9.2,70,0.00,BKN,,0.01,172.0,WeatherDisplay:10.37,2013-04-13 20:48:00,
2013-04-13 15:53:00,38.2,28.9,29.93,South,176,11.5,11.5,69,0.00,BKN,,0.01,79.0,WeatherDisplay:10.37,2013-04-13 20:53:00,
2013-04-13 15:58:00,38.0,29.4,29.93,SW,214,6.9,6.9,71,0.00,BKN,,0.01,67.0,WeatherDisplay:10.37,2013-04-13 20:58:00,
2013-04-13 16:03:00,37.7,28.8,29.93,SSW,208,6.9,6.9,70,0.00,BKN,,0.01,67.0,WeatherDisplay:10.37,2013-04-13 21:03:00,
2013-04-13 16:08:00,37.5,28.9,29.93,SSW,204,10.4,10.4,71,0.00,BKN,,0.01,139.0,WeatherDisplay:10.37,2013-04-13 21:08:00,
2013-04-13 16:13:00,37.6,29.0,29.93,SW,227,11.5,11.5,71,0.00,BKN,,0.01,160.0,WeatherDisplay:10.37,2013-04-13 21:13:00,
2013-04-13 16:18:00,37.8,29.2,29.93,SW,217,6.9,6.9,71,0.00,BKN,,0.01,146.0,WeatherDisplay:10.37,2013-04-13 21:18:00,
2013-04-13 16:23:00,37.9,29.3,29.93,SW,216,10.4,10.4,71,0.00,BKN,,0.01,121.0,WeatherDisplay:10.37,2013-04-13 21:23:00,
2013-04-13 16:28:00,37.8,28.9,29.93,SSE,164,17.3,17.3,70,0.00,BKN,,0.01,109.0,WeatherDisplay:10.37,2013-04-13 21:28:00,
2013-04-13 16:33:00,37.9,29.3,29.93,SW,221,9.0,9.0,71,0.00,BKN,,0.01,128.0,WeatherDisplay:10.37,2013-04-13 21:33:00,
2013-04-13 16:38:00,37.9,29.3,29.93,SSW,210,11.5,11.5,71,0.00,BKN,,0.01,123.0,WeatherDisplay:10.37,2013-04-13 21:38:00,
2013-04-13 16:43:00,38.0,29.8,29.93,SSE,147,6.9,6.9,72,0.00,BKN,,0.01,105.0,WeatherDisplay:10.37,2013-04-13 21:43:00,
2013-04-13 16:48:00,38.0,29.8,29.93,SSW,202,3.5,3.5,72,0.00,BKN,,0.01,76.0,WeatherDisplay:10.37,2013-04-13 21:48:00,
2013-04-13 16:53:00,37.9,29.7,29.94,SSW,200,5.0,5.0,72,0.00,BKN,,0.01,98.0,WeatherDisplay:10.37,2013-04-13 21:53:00,
2013-04-13 16:58:00,37.9,29.7,29.94,South,185,6.9,6.9,72,0.00,BKN,,0.01,149.0,WeatherDisplay:10.37,2013-04-13 21:58:00,
2013-04-13 17:03:00,37.9,29.7,29.94,WSW,256,5.8,5.8,72,0.00,BKN,,0.01,77.0,WeatherDisplay:10.37,2013-04-13 22:03:00,
2013-04-13 17:08:00,37.7,29.1,29.94,SW,221,5.8,5.8,71,0.00,BKN,,0.01,65.0,WeatherDisplay:10.37,2013-04-13 22:08:00,
2013-04-13 17:13:00,37.7,29.5,29.94,SW,224,9.2,9.2,72,0.00,BKN,,0.01,76.0,WeatherDisplay:10.37,2013-04-13 22:13:00,
2013-04-13 17:18:00,37.6,29.4,29.94,SW,216,10.4,10.4,72,0.00,BKN,,0.01,46.0,WeatherDisplay:10.37,2013-04-13 22:18:00,
2013-04-13 17:23:00,37.7,29.8,29.95,SW,214,3.0,3.0,73,0.00,BKN,,0.01,56.0,WeatherDisplay:10.37,2013-04-13 22:23:00,
2013-04-13 17:28:00,37.7,29.8,29.95,SW,218,3.5,3.5,73,0.00,BKN,,0.01,97.0,WeatherDisplay:10.37,2013-04-13 22:28:00,
2013-04-13 17:33:00,37.6,29.7,29.95,SSW,209,4.6,4.6,73,0.00,BKN,,0.01,53.0,WeatherDisplay:10.37,2013-04-13 22:33:00,
2013-04-13 17:38:00,37.5,29.3,29.95,SSW,206,5.8,5.8,72,0.00,BKN,,0.01,67.0,WeatherDisplay:10.37,2013-04-13 22:38:00,
2013-04-13 17:43:00,37.5,29.3,29.95,SW,223,5.8,5.8,72,0.00,BKN,,0.01,84.0,WeatherDisplay:10.37,2013-04-13 22:43:00,
2013-04-13 17:48:00,37.6,29.7,29.95,SW,221,2.0,2.0,73,0.00,BKN,,0.01,53.0,WeatherDisplay:10.37,2013-04-13 22:48:00,
2013-04-13 17:53:00,37.6,29.7,29.95,SSW,206,1.0,1.0,73,0.00,BKN,,0.01,102.0,WeatherDisplay:10.37,2013-04-13 22:53:00,
2013-04-13 17:58:00,37.6,29.4,29.95,SW,221,5.0,5.0,72,0.00,BKN,,0.01,79.0,WeatherDisplay:10.37,2013-04-13 22:58:00,
2013-04-13 18:03:00,37.7,29.1,29.95,SW,216,3.5,3.5,71,0.00,BKN,,0.01,90.0,WeatherDisplay:10.37,2013-04-13 23:03:00,
2013-04-13 18:08:00,37.7,29.1,29.95,SW,222,3.5,3.5,71,0.00,BKN,,0.01,67.0,WeatherDisplay:10.37,2013-04-13 23:08:00,
2013-04-13 18:13:00,37.7,29.1,29.95,SW,214,3.5,3.5,71,0.00,BKN,,0.01,62.0,WeatherDisplay:10.37,2013-04-13 23:13:00,
2013-04-13 18:18:00,37.6,29.0,29.95,SW,220,10.4,10.4,71,0.00,BKN,,0.01,53.0,WeatherDisplay:10.37,2013-04-13 23:18:00,
2013-04-13 18:23:00,37.5,28.9,29.95,SSW,202,3.5,3.5,71,0.00,BKN,,0.01,62.0,WeatherDisplay:10.37,2013-04-13 23:23:00,
2013-04-13 18:28:00,37.5,28.6,29.95,SSW,205,4.0,4.0,70,0.00,BKN,,0.01,70.0,WeatherDisplay:10.37,2013-04-13 23:28:00,
2013-04-13 18:33:00,37.4,28.9,29.96,SW,219,3.5,3.5,71,0.00,BKN,,0.01,51.0,WeatherDisplay:10.37,2013-04-13 23:33:00,
2013-04-13 18:38:00,37.4,28.9,29.96,SW,223,3.5,3.5,71,0.00,BKN,,0.01,35.0,WeatherDisplay:10.37,2013-04-13 23:38:00,
2013-04-13 18:43:00,37.3,28.8,29.96,SW,214,3.5,3.5,71,0.00,BKN,,0.01,32.0,WeatherDisplay:10.37,2013-04-13 23:43:00,
2013-04-13 18:48:00,37.2,28.7,29.96,SW,217,8.1,8.1,71,0.00,BKN,,0.01,25.0,WeatherDisplay:10.37,2013-04-13 23:48:00,
2013-04-13 18:53:00,37.1,28.6,29.96,SW,220,2.3,2.3,71,0.00,BKN,,0.01,21.0,WeatherDisplay:10.37,2013-04-13 23:53:00,
2013-04-13 18:58:00,37.1,28.6,29.96,South,179,3.5,3.5,71,0.00,BKN,,0.01,18.0,WeatherDisplay:10.37,2013-04-13 23:58:00,
2013-04-13 19:03:00,37.0,28.5,29.96,SSW,208,3.0,3.0,71,0.00,BKN,,0.01,16.0,WeatherDisplay:10.37,2013-04-14 00:03:00,
2013-04-13 19:08:00,37.0,28.8,29.96,SW,227,2.3,2.3,72,0.00,BKN,,0.01,12.0,WeatherDisplay:10.37,2013-04-14 00:08:00,
2013-04-13 19:13:00,36.9,28.4,29.96,SW,229,4.6,4.6,71,0.00,BKN,,0.01,9.0,WeatherDisplay:10.37,2013-04-14 00:13:00,
2013-04-13 19:18:00,36.9,28.7,29.96,SW,230,2.3,2.3,72,0.00,BKN,,0.01,7.0,WeatherDisplay:10.37,2013-04-14 00:18:00,
2013-04-13 19:23:00,36.8,28.6,29.97,SW,235,3.5,3.5,72,0.00,BKN,,0.01,5.0,WeatherDisplay:10.37,2013-04-14 00:23:00,
2013-04-13 19:28:00,36.8,28.6,29.97,WSW,241,4.6,4.6,72,0.00,OVC,,0.01,0.0,WeatherDisplay:10.37,2013-04-14 00:28:00,
2013-04-13 19:33:00,36.7,28.5,29.97,SSW,208,4.6,4.6,72,0.00,OVC,,0.01,0.0,WeatherDisplay:10.37,2013-04-14 00:33:00,
2013-04-13 19:38:00,36.7,28.5,29.97,SSW,210,2.3,2.3,72,0.00,OVC,,0.01,0.0,WeatherDisplay:10.37,2013-04-14 00:38:00,
2013-04-13 19:43:00,36.7,28.5,29.97,SSW,198,3.5,3.5,72,0.00,OVC,,0.01,0.0,WeatherDisplay:10.37,2013-04-14 00:43:00,
2013-04-13 19:48:00,36.6,28.8,29.97,SSW,205,2.3,2.3,73,0.00,OVC,,0.01,0.0,WeatherDisplay:10.37,2013-04-14 00:48:00,
2013-04-13 19:53:00,36.6,29.1,29.98,SSW,209,0.0,0.1,74,0.00,OVC,,0.01,0.0,WeatherDisplay:10.37,2013-04-14 00:53:00,
2013-04-13 19:58:00,36.5,29.0,29.98,SSW,209,1.1,1.1,74,0.00,OVC,,0.01,0.0,WeatherDisplay:10.37,2013-04-14 00:58:00,
2013-04-13 20:03:00,36.5,29.0,29.98,SSW,209,0.0,0.0,74,0.00,CLR,,0.01,0.0,WeatherDisplay:10.37,2013-04-14 01:03:00,
2013-04-13 20:09:00,36.4,29.2,29.98,SSW,209,1.1,1.1,75,0.00,CLR,,0.01,0.0,WeatherDisplay:10.37,2013-04-14 01:09:00,
2013-04-13 20:14:00,36.3,29.1,29.98,SSW,209,2.3,2.3,75,0.00,CLR,,0.01,0.0,WeatherDisplay:10.37,2013-04-14 01:14:00,
2013-04-13 20:19:00,36.3,29.1,29.98,SSW,209,0.0,0.0,75,0.00,CLR,,0.01,0.0,WeatherDisplay:10.37,2013-04-14 01:19:00,
2013-04-13 20:24:00,36.3,29.1,29.99,SW,234,2.3,2.3,75,0.00,CLR,,0.01,0.0,WeatherDisplay:10.37,2013-04-14 01:24:00,
2013-04-13 20:29:00,36.2,29.0,29.99,SW,234,0.0,0.0,75,0.00,CLR,,0.01,0.0,WeatherDisplay:10.37,2013-04-14 01:29:00,
2013-04-13 20:34:00,36.1,28.9,29.99,SW,234,0.0,0.0,75,0.00,CLR,,0.01,0.0,WeatherDisplay:10.37,2013-04-14 01:34:00,
2013-04-13 20:39:00,36.1,29.3,29.99,SW,234,0.0,0.0,76,0.00,CLR,,0.01,0.0,WeatherDisplay:10.37,2013-04-14 01:39:00,
2013-04-13 20:44:00,36.1,29.3,29.99,SW,233,0.0,0.0,76,0.00,CLR,,0.01,0.0,WeatherDisplay:10.37,2013-04-14 01:44:00,
2013-04-13 20:49:00,36.0,29.2,29.99,SW,234,0.0,0.0,76,0.00,CLR,,0.01,0.0,WeatherDisplay:10.37,2013-04-14 01:49:00,
2013-04-13 20:54:00,35.9,29.1,29.99,SW,234,0.0,0.0,76,0.00,CLR,,0.01,0.0,WeatherDisplay:10.37,2013-04-14 01:54:00,
2013-04-13 20:59:00,35.9,29.1,30.00,SW,234,0.0,0.0,76,0.00,CLR,,0.01,0.0,WeatherDisplay:10.37,2013-04-14 01:59:00,
2013-04-13 21:04:00,35.8,29.3,30.00,SW,234,0.0,0.0,77,0.00,CLR,,0.01,0.0,WeatherDisplay:10.37,2013-04-14 02:04:00,
2013-04-13 21:09:00,35.8,29.3,30.00,SW,234,0.0,0.0,77,0.00,CLR,,0.01,0.0,WeatherDisplay:10.37,2013-04-14 02:09:00,
2013-04-13 21:14:00,35.7,29.2,30.00,SW,234,0.0,0.0,77,0.00,CLR,,0.01,0.0,WeatherDisplay:10.37,2013-04-14 02:14:00,
2013-04-13 21:19:00,35.7,29.2,29.99,SW,233,0.0,0.0,77,0.00,CLR,,0.01,0.0,WeatherDisplay:10.37,2013-04-14 02:19:00,
2013-04-13 21:24:00,35.6,29.1,29.99,SW,233,0.0,0.0,77,0.00,CLR,,0.01,0.0,WeatherDisplay:10.37,2013-04-14 02:24:00,
2013-04-13 21:29:00,35.5,29.0,30.00,SW,234,0.0,0.0,77,0.00,CLR,,0.01,0.0,WeatherDisplay:10.37,2013-04-14 02:29:00,
2013-04-13 21:34:00,35.4,28.9,30.00,SW,234,0.0,0.0,77,0.00,CLR,,0.01,0.0,WeatherDisplay:10.37,2013-04-14 02:34:00,
2013-04-13 21:39:00,35.2,28.7,29.99,SW,233,0.0,0.0,77,0.00,CLR,,0.01,0.0,WeatherDisplay:10.37,2013-04-14 02:39:00,
2013-04-13 21:44:00,35.0,28.5,29.99,SW,234,0.0,0.0,77,0.00,CLR,,0.01,0.0,WeatherDisplay:10.37,2013-04-14 02:44:00,
2013-04-13 21:49:00,34.7,27.9,29.99,SW,234,0.0,0.0,76,0.00,CLR,,0.01,0.0,WeatherDisplay:10.37,2013-04-14 02:49:00,
2013-04-13 21:54:00,34.5,27.7,29.99,SW,234,0.0,0.0,76,0.00,CLR,,0.01,0.0,WeatherDisplay:10.37,2013-04-14 02:54:00,
2013-04-13 21:59:00,34.2,27.7,30.00,SW,234,0.0,0.0,77,0.00,CLR,,0.01,0.0,WeatherDisplay:10.37,2013-04-14 02:59:00,
2013-04-13 22:04:00,33.8,27.4,30.00,SW,234,0.0,0.0,77,0.00,CLR,,0.01,0.0,WeatherDisplay:10.37,2013-04-14 03:04:00,
2013-04-13 22:09:00,33.5,27.1,30.00,SW,234,0.0,0.0,77,0.00,CLR,,0.01,0.0,WeatherDisplay:10.37,2013-04-14 03:09:00,
2013-04-13 22:14:00,33.2,27.1,30.00,SW,234,0.0,0.0,78,0.00,CLR,,0.01,0.0,WeatherDisplay:10.37,2013-04-14 03:14:00,
2013-04-13 22:19:00,32.9,26.8,30.00,SW,234,0.0,0.0,78,0.00,CLR,,0.01,0.0,WeatherDisplay:10.37,2013-04-14 03:19:00,
2013-04-13 22:24:00,32.6,26.8,30.01,SW,234,0.0,0.0,79,0.00,CLR,,0.01,0.0,WeatherDisplay:10.37,2013-04-14 03:24:00,
2013-04-13 22:29:00,32.4,26.9,30.01,SW,234,0.0,0.0,80,0.00,CLR,,0.01,0.0,WeatherDisplay:10.37,2013-04-14 03:29:00,
2013-04-13 22:34:00,32.2,26.7,30.01,SW,233,0.0,0.0,80,0.00,CLR,,0.01,0.0,WeatherDisplay:10.37,2013-04-14 03:34:00,
2013-04-13 22:39:00,32.1,26.9,30.01,SW,233,0.0,0.0,81,0.00,CLR,,0.01,0.0,WeatherDisplay:10.37,2013-04-14 03:39:00,
2013-04-13 22:44:00,31.9,26.7,30.01,SW,234,0.0,0.0,81,0.00,CLR,,0.01,0.0,WeatherDisplay:10.37,2013-04-14 03:44:00,
2013-04-13 22:49:00,31.8,26.6,30.01,SW,234,0.0,0.0,81,0.00,CLR,,0.01,0.0,WeatherDisplay:10.37,2013-04-14 03:49:00,
2013-04-13 22:54:00,31.7,26.8,30.02,SW,234,0.0,0.0,82,0.00,CLR,,0.01,0.0,WeatherDisplay:10.37,2013-04-14 03:54:00,
2013-04-13 22:59:00,31.7,26.8,30.02,SW,233,0.0,0.0,82,0.00,CLR,,0.01,0.0,WeatherDisplay:10.37,2013-04-14 03:59:00,
2013-04-13 23:00:00,31.7,26.8,30.02,SW,234,0.0,0.0,82,0.00,CLR,,0.01,0.0,WeatherDisplay:10.37,2013-04-14 04:00:00,
2013-04-13 23:05:00,31.7,26.8,30.02,SW,234,0.0,0.0,82,0.00,CLR,,0.01,0.0,WeatherDisplay:10.37,2013-04-14 04:05:00,
2013-04-13 23:10:00,31.6,27.0,30.02,SW,234,0.0,0.0,83,0.00,CLR,,0.01,0.0,WeatherDisplay:10.37,2013-04-14 04:10:00,
2013-04-13 23:15:00,31.7,27.1,30.02,SW,233,0.0,0.0,83,0.00,CLR,,0.01,0.0,WeatherDisplay:10.37,2013-04-14 04:15:00,
2013-04-13 23:20:00,31.7,27.1,30.03,SW,234,0.0,0.0,83,0.00,CLR,,0.01,0.0,WeatherDisplay:10.37,2013-04-14 04:20:00,
2013-04-13 23:25:00,31.8,27.5,30.03,SW,234,0.0,0.0,84,0.00,CLR,,0.01,0.0,WeatherDisplay:10.37,2013-04-14 04:25:00,
2013-04-13 23:30:00,31.9,27.6,30.03,SW,234,0.0,0.0,84,0.00,CLR,,0.01,0.0,WeatherDisplay:10.37,2013-04-14 04:30:00,
2013-04-13 23:35:00,31.9,27.6,30.02,SW,233,0.0,0.0,84,0.00,CLR,,0.01,0.0,WeatherDisplay:10.37,2013-04-14 04:35:00,
2013-04-13 23:40:00,31.9,27.6,30.02,SW,234,0.0,0.0,84,0.00,CLR,,0.01,0.0,WeatherDisplay:10.37,2013-04-14 04:40:00,
2013-04-13 23:45:00,31.8,27.5,30.03,SW,234,0.0,0.0,84,0.00,CLR,,0.01,0.0,WeatherDisplay:10.37,2013-04-14 04:45:00,
2013-04-13 23:50:00,31.8,27.5,30.03,SW,234,0.0,0.0,84,0.00,CLR,,0.01,0.0,WeatherDisplay:10.37,2013-04-14 04:50:00,
2013-04-13 23:55:00,31.6,27.3,30.03,SW,233,0.0,0.0,84,0.00,CLR,,0.01,0.0,WeatherDisplay:10.37,2013-04-14 04:55:00,